Weather History for Fitchburg, MA

Change the Weather History Date:

Friday, June 14, 2013

  Actual Average (KORH) Record (KORH)
Temperature  
Mean Temperature 64 °F 65 °F  
Max Temperature 77 °F 74 °F 93 °F (1956)
Min Temperature 52 °F 56 °F 41 °F (1946)
Degree Days  
Heating Degree Days 2 3  
Month to date heating degree days 57  
Since 1 June heating degree days 57  
Since 1 July heating degree days 6691  
Cooling Degree Days 0 3  
Month to date cooling degree days 27  
Year to date cooling degree days 49  
Since 1 June cooling degree days 27  
Growing Degree Days 14 (Base 50)    
Moisture  
Dew Point 52 °F    
Average Humidity 77    
Maximum Humidity 94    
Minimum Humidity 36    
Precipitation  
Precipitation 0.56 in 0.15 in 1.85 in (1899)
Month to date precipitation 2.14  
Year to date precipitation 21.37  
Sea Level Pressure  
Sea Level Pressure 29.73 in    
Wind  
Wind Speed 5 mph (North)    
Max Wind Speed 9 mph    
Max Gust Speed -    
Visibility 9 miles    
Events Rain    
T = Trace of Precipitation, MM = Missing Value Source: NWS Daily Summary

Daily Weather History Graph

Daily Weather History Graph

Search for Another Location

Airport:

Trip Planner

Search our weather history database for the weather conditions in past years. The results will help you decide how hot, cold, wet, or windy it might be!

Date:

Astronomy

Jun. 14, 2013 Rise Set
Actual Time 5:08 AM EDT 8:26 PM EDT
Civil Twilight 4:34 AM EDT 9:00 PM EDT
Nautical Twilight 3:48 AM EDT 9:46 PM EDT
Astronomical Twilight 2:53 AM EDT 10:41 PM EDT
Moon 10:47 AM EDT (6/14) 11:53 PM EDT (6/14)
Length of Visible Light 16h 26m
Length of Day
15h 17m
Waxing Crescent, 30% of the Moon is Illuminated
Jun 14
Waxing Crescent
Jun 16
First Quarter
Jun 23
Full
Jun 30
Last Quarter
Jul 8
New

Hourly Weather History & Observations

Time (EDT) Temp. Dew Point Humidity Pressure Visibility Wind Dir Wind Speed Gust Speed Precip Events Conditions
12:52 AM 52.0 °F 50.0 °F 93% 29.70 in 7.0 mi NNW 5.8 mph - 0.08 in Rain Rain
1:52 AM 53.1 °F 50.0 °F 89% 29.69 in 7.0 mi North 9.2 mph - 0.06 in Rain Light Rain
2:12 AM 53.6 °F 50.0 °F 88% 29.68 in 9.0 mi North 5.8 mph - 0.01 in Rain Light Rain
2:35 AM 53.6 °F 50.0 °F 88% 29.68 in 7.0 mi North 3.5 mph - 0.03 in Rain Light Rain
2:42 AM 53.6 °F 50.0 °F 88% 29.68 in 7.0 mi NNE 4.6 mph - 0.04 in Rain Rain
2:52 AM 53.1 °F 50.0 °F 89% 29.68 in 7.0 mi North 5.8 mph - 0.05 in Rain Rain
3:23 AM 53.6 °F 50.0 °F 88% 29.68 in 8.0 mi North 4.6 mph - 0.03 in Rain Light Rain
3:52 AM 53.1 °F 51.1 °F 93% 29.69 in 8.0 mi North 3.5 mph - 0.07 in Rain Light Rain
4:09 AM 53.6 °F 51.8 °F 94% 29.69 in 7.0 mi NNW 5.8 mph - 0.02 in Rain Rain
4:52 AM 53.1 °F 51.1 °F 93% 29.69 in 7.0 mi NNW 6.9 mph - 0.08 in Rain Rain
5:52 AM 53.1 °F 51.1 °F 93% 29.70 in 9.0 mi NNW 5.8 mph - 0.09 in Rain Light Rain
6:41 AM 53.6 °F 50.0 °F 88% 29.71 in 7.0 mi NNW 6.9 mph - 0.09 in Rain Rain
6:52 AM 53.1 °F 50.0 °F 89% 29.72 in 7.0 mi NNW 4.6 mph - 0.10 in Rain Light Rain
7:17 AM 53.6 °F 51.8 °F 94% 29.73 in 9.0 mi Variable 3.5 mph - 0.03 in Rain Light Rain
7:37 AM 53.6 °F 51.8 °F 94% 29.73 in 10.0 mi North 4.6 mph - 0.03 in Rain Light Rain
7:52 AM 54.0 °F 52.0 °F 93% 29.74 in 10.0 mi NNE 3.5 mph - 0.03 in   Overcast
8:50 AM 55.4 °F 51.8 °F 88% 29.74 in 10.0 mi NE 6.9 mph - N/A   Overcast
8:52 AM 55.0 °F 51.1 °F 86% 29.75 in 10.0 mi NE 5.8 mph - N/A   Overcast
9:07 AM 55.4 °F 51.8 °F 88% 29.74 in 10.0 mi NE 5.8 mph - N/A   Overcast
9:52 AM 57.0 °F 51.1 °F 81% 29.74 in 10.0 mi NNE 4.6 mph - N/A   Overcast
10:31 AM 59.0 °F 51.8 °F 77% 29.75 in 10.0 mi NNW 3.5 mph - N/A   Overcast
10:52 AM 59.0 °F 52.0 °F 78% 29.76 in 10.0 mi Calm Calm - N/A   Overcast
10:59 AM 60.8 °F 51.8 °F 72% 29.75 in 10.0 mi Calm Calm - N/A   Mostly Cloudy
11:09 AM 60.8 °F 51.8 °F 72% 29.74 in 10.0 mi NNE 3.5 mph - N/A   Scattered Clouds
11:52 AM 62.1 °F 51.1 °F 67% 29.76 in 10.0 mi NE 3.5 mph - N/A   Partly Cloudy
12:52 PM 64.9 °F 53.1 °F 65% 29.75 in 10.0 mi WNW 4.6 mph - N/A   Scattered Clouds
1:52 PM 69.1 °F 53.1 °F 57% 29.75 in 10.0 mi Calm Calm - N/A   Partly Cloudy
2:52 PM 71.1 °F 52.0 °F 51% 29.73 in 10.0 mi North 3.5 mph - N/A   Clear
3:52 PM 75.0 °F 50.0 °F 41% 29.72 in 10.0 mi North 9.2 mph - N/A   Clear
4:52 PM 75.0 °F 48.0 °F 38% 29.72 in 10.0 mi NNW 5.8 mph - N/A   Partly Cloudy
5:52 PM 75.9 °F 46.9 °F 36% 29.72 in 10.0 mi NW 8.1 mph - N/A   Clear
6:52 PM 73.9 °F 51.1 °F 45% 29.73 in 10.0 mi NNW 3.5 mph - 0.00 in Rain Light Rain
7:52 PM 70.0 °F 59.0 °F 68% 29.74 in 10.0 mi Calm Calm - 0.00 in   Mostly Cloudy
8:52 PM 66.0 °F 55.0 °F 68% 29.76 in 10.0 mi NNW 4.6 mph - N/A   Clear
9:52 PM 63.0 °F 55.0 °F 75% 29.78 in 10.0 mi Variable 3.5 mph - N/A   Clear
10:52 PM 60.1 °F 54.0 °F 80% 29.79 in 10.0 mi Calm Calm - N/A   Clear
11:52 PM 61.0 °F 54.0 °F 78% 29.80 in 10.0 mi Calm Calm - N/A   Clear